Fort Huachuca, AZ

7:54 AM MST on February 19, 2017 (GMT -0700)
Sierra Vista Municipal-Libby Army Air Field

Weather History for KFHU - July, 2014

Change the Weather History Date:

Friday, July 25, 2014

  Actual Average Record
Temperature  
Mean Temperature 79 °F -  
Max Temperature 89 °F 87 °F 96 °F (1996)
Min Temperature 69 °F 68 °F 60 °F (1983)
Cooling Degree Days 14    
Growing Degree Days 29 (Base 50)    
Moisture  
Dew Point 58 °F    
Average Humidity 49    
Maximum Humidity 69    
Minimum Humidity 29    
Precipitation  
Precipitation 0.00 in - - ()
Sea Level Pressure  
Sea Level Pressure 30.03 in    
Wind  
Wind Speed 8 mph (WSW)    
Max Wind Speed 25 mph    
Max Gust Speed 32 mph    
Visibility 8 miles    
Events Rain , Thunderstorm    
Averages and records for this station are not official NWS values.
T = Trace of Precipitation, MM = Missing Value Source: NWS Daily Summary

Daily Weather History Graph

Daily Weather History Graph

Search for Another Location

Airport or City:

Trip Planner

Search our weather history database for the weather conditions in past years. The results will help you decide how hot, cold, wet, or windy it might be!

Date:

Astronomy

Jul. 25, 2014 Rise Set
Actual Time 5:33 AM MST 7:22 PM MST
Civil Twilight 5:06 AM MST 7:49 PM MST
Nautical Twilight 4:33 AM MST 8:21 PM MST
Astronomical Twilight 3:59 AM MST 8:55 PM MST
Moon 4:33 AM MST (7/25) 6:25 PM MST (7/25)
Length of Visible Light 14h 43m
Length of Day
13h 49m
Waning Crescent, 1% of the Moon is Illuminated
Jul 25
Waning Crescent
Jul 26
New
Aug 3
First Quarter
Aug 10
Full
Aug 17
Last Quarter

Hourly Weather History & Observations

Time (MST) Temp. Heat Index Dew Point Humidity Pressure Visibility Wind Dir Wind Speed Gust Speed Precip Events Conditions
12:55 AM 78.8 °F - 57.2 °F 47% 29.94 in 10.0 mi South 3.5 mph - N/A   Clear
1:55 AM 77.0 °F - 60.8 °F 57% 29.94 in 10.0 mi SW 5.8 mph - N/A   Clear
2:55 AM 75.2 °F - 62.6 °F 65% 29.94 in 7.0 mi SE 5.8 mph - N/A   Clear
3:55 AM 73.4 °F - 60.8 °F 65% 29.93 in 6.0 mi West 4.6 mph - N/A   Clear
4:55 AM 71.6 °F - 60.8 °F 69% 29.94 in 5.0 mi WSW 3.5 mph - N/A   Clear
5:55 AM 73.4 °F - 60.8 °F 65% 30.17 in 4.0 mi South 4.6 mph - N/A   Scattered Clouds
6:55 AM 75.2 °F - 60.8 °F 61% 30.19 in 4.0 mi Calm Calm - N/A   Partly Cloudy
7:55 AM 78.8 °F - 60.8 °F 54% 30.21 in 4.0 mi Calm Calm - N/A   Partly Cloudy
8:55 AM 82.4 °F 83.4 °F 62.6 °F 51% 30.21 in 4.0 mi East 5.8 mph - N/A   Partly Cloudy
9:55 AM 86.0 °F 84.9 °F 57.2 °F 37% 30.20 in 6.0 mi Calm Calm - N/A   Partly Cloudy
10:55 AM 87.8 °F 86.5 °F 57.2 °F 35% 29.98 in 7.0 mi Variable 4.6 mph - N/A   Partly Cloudy
11:55 AM 89.6 °F 87.7 °F 55.4 °F 31% 29.95 in 7.0 mi ESE 8.1 mph - N/A Thunderstorm Scattered Clouds
12:55 PM 89.6 °F 87.3 °F 53.6 °F 29% 29.94 in 10.0 mi SW 25.3 mph 32.2 mph N/A Thunderstorm Mostly Cloudy
1:15 PM 86.0 °F 84.2 °F 53.6 °F 33% 30.15 in 10.0 mi SW 19.6 mph - N/A Rain , Thunderstorm Light Thunderstorms and Rain
1:42 PM 69.8 °F - 57.2 °F 64% 30.15 in 10.0 mi WSW 8.1 mph - N/A Thunderstorm Thunderstorm
1:55 PM 87.8 °F 85.7 °F 53.6 °F 31% 29.92 in 10.0 mi WNW 19.6 mph 24.2 mph N/A Thunderstorm Mostly Cloudy
2:55 PM 84.2 °F 82.8 °F 53.6 °F 35% 29.93 in 10.0 mi West 17.3 mph - N/A   Mostly Cloudy
3:29 PM 84.2 °F 83.0 °F 55.4 °F 37% 30.12 in 10.0 mi WSW 18.4 mph 27.6 mph N/A Thunderstorm Mostly Cloudy
3:55 PM 82.4 °F 82.0 °F 57.2 °F 42% 29.91 in 10.0 mi WSW 20.7 mph - N/A Thunderstorm Mostly Cloudy
4:55 PM 82.4 °F 81.7 °F 55.4 °F 39% 29.94 in 10.0 mi SSW 15.0 mph - N/A Thunderstorm Overcast
5:18 PM 80.6 °F 80.8 °F 57.2 °F 45% 30.14 in 10.0 mi North 12.7 mph 21.9 mph N/A Rain , Thunderstorm Light Rain Showers
5:55 PM 78.8 °F - 59.0 °F 51% 29.94 in 10.0 mi NW 19.6 mph 23.0 mph N/A   Mostly Cloudy
6:55 PM 75.2 °F - 57.2 °F 53% 29.95 in 10.0 mi WNW 15.0 mph - N/A   Mostly Cloudy
7:55 PM 73.4 °F - 57.2 °F 57% 29.96 in 10.0 mi West 13.8 mph 21.9 mph N/A   Mostly Cloudy
8:55 PM 73.4 °F - 57.2 °F 57% 29.98 in 10.0 mi West 13.8 mph - N/A   Partly Cloudy
9:55 PM 73.4 °F - 57.2 °F 57% 29.97 in 10.0 mi West 12.7 mph - N/A   Partly Cloudy
10:55 PM 75.2 °F - 53.6 °F 47% 30.19 in 10.0 mi WSW 8.1 mph - N/A   Partly Cloudy
11:56 PM 71.1 °F - 55.0 °F 57% 29.98 in 10.0 mi Calm Calm - N/A   Clear